Location: *
(41.7593°N, 2.3949°E)
Time: 19:09:46
(UTC+00:00)

Daily predictions for brighter satellites

Satellite Brightness Start Highest point End
(mag) Time Altitude Azimuth Time Altitude Azimuth Time Altitude Azimuth
SKYMED 2 4.0 17:29:37 10° NNE 17:33:44 40° E 17:37:49 10° S
Unknown 4.0 17:30:46 10° WSW 17:34:52 63° NW 17:38:59 10° NE
Atlas Centaur 2 4.5 17:30:51 10° WSW 17:35:14 18° SSW 17:39:03 10° SSE
Unknown 4.1 17:32:23 10° WSW 17:36:29 62° NW 17:40:36 10° NE
Cosmos 1953 2.4 17:33:19 10° S 17:37:16 55° E 17:41:16 10° NNE
YAOGAN 1 3.4 17:33:35 10° SE 17:37:17 29° ENE 17:41:00 10° N
H-2A R/B 3.1 17:33:46 10° S 17:37:37 74° WSW 17:41:33 10° NNW
Cosmos 1726 3.4 17:36:41 10° SE 17:39:20 19° E 17:42:00 10° NE
Cosmos 1758 3.7 17:39:04 10° SSW 17:43:01 69° W 17:46:59 10° N
Unknown 4.2 17:39:05 10° WSW 17:43:09 54° NNW 17:47:13 10° NE
Unknown 4.2 17:39:06 10° WSW 17:43:10 55° NNW 17:47:16 10° NE
Unknown 4.2 17:39:55 10° WSW 17:43:58 54° NNW 17:48:03 10° NE
CZ-4C R/B 3.0 17:37:48 10° NW 17:45:10 82° NE 17:53:28 10° SE
Cosmos 1486 Rocket 4.3 17:39:58 10° NNW 17:45:19 79° WSW 17:50:37 10° SSE
COSMOS 2406 4.2 17:41:58 10° N 17:46:51 27° NE 17:51:40 10° ESE
Cosmos 2082 Rocket 4.1 17:46:18 10° NNE 17:47:40 11° NE 17:49:03 10° NE
Unknown 4.4 17:44:01 10° WSW 17:48:03 50° NNW 17:52:06 10° NE
Unknown 4.4 17:44:09 10° WSW 17:48:11 51° NNW 17:52:14 10° NE
Unknown 4.5 17:45:57 10° WSW 17:49:57 48° NNW 17:53:59 10° NE
Cosmos 1354 Rocket 4.1 17:45:23 10° NNW 17:50:34 58° ENE 17:55:42 10° SSE
Cosmos 1726 Rocket 3.7 17:46:48 10° S 17:51:06 54° E 17:55:22 10° NNE
Unknown 4.5 17:49:50 10° WSW 17:53:50 46° NNW 17:57:51 10° NE
ASTEX 1 3.5 17:49:30 10° NNE 17:54:23 56° E 17:59:15 10° S
Okean-O 3.4 17:51:00 10° S 17:55:21 59° W 17:59:45 10° NNW
FengYun 1-2 T 4.3 17:49:48 10° SSE 17:55:24 66° ENE 18:00:59 10° N
CSL-04 Debris 4.3 17:50:17 10° SE 17:55:32 52° ENE 18:00:50 10° N
Shenzhou-11 Module 1.7 17:56:15 10° WSW 17:59:01 77° SSE 18:00:58 17° E
Cosmos 1242 Rocket 3.4 17:55:49 10° N 17:59:08 30° ENE 18:02:25 10° SE
OAO 2 Rocket 4.3 17:55:24 10° WSW 18:00:18 39° S 18:04:44 12° ESE
Cosmos 968 Rocket 3.5 17:55:43 10° NNW 18:01:01 81° ENE 18:06:17 10° SSE
Cosmos 2058 Rocket 3.3 17:56:53 10° SSE 18:01:01 44° E 18:05:10 10° NNE
Abrixas rocket 4.0 18:00:29 10° S 18:02:12 14° SE 18:02:55 13° ESE
Cosmos 1939 Rocket 3.9 17:59:22 10° SE 18:02:38 25° ENE 18:05:57 10° NNE
Cosmos 2239 Rocket 4.4 17:57:13 10° N 18:03:23 76° E 18:09:30 10° SSE
OAO 3 Rocket 4.4 17:59:27 10° SW 18:03:49 32° SSE 18:07:26 14° ESE
Ariane Rocket 3.8 17:59:46 10° SE 18:04:07 29° ENE 18:08:29 10° N
Cosmos 2228 3.0 17:59:57 10° S 18:04:20 82° E 18:08:43 10° N
Cosmos 1821 Rocket 4.0 18:03:37 10° N 18:09:45 87° W 18:15:55 10° S
Cosmos 1605 Rocket 4.4 18:04:00 10° N 18:09:47 39° ENE 18:15:28 10° SE
Lacrosse 5 rocket 1.3 18:06:18 10° NW 18:10:02 58° NE 18:13:01 16° ESE
Cosmos 1844 Rocket 3.0 18:05:53 10° SSW 18:11:32 70° WNW 18:17:10 10° NNE
Meteor 1-16 Rocket 4.1 18:07:07 10° S 18:12:43 71° E 18:18:09 10° NNE
Cosmos 1992 Rocket 4.4 18:08:06 10° SSW 18:13:18 69° WNW 18:18:32 10° NNE
Meteor 2-10 4.0 18:08:43 10° S 18:13:41 54° E 18:18:36 10° NNE
Nadezhda 3 Rocket 4.4 18:08:36 10° SSW 18:14:49 69° W 18:21:09 10° N
Cosmos 921 Rocket 3.0 18:11:27 10° SSW 18:15:57 80° ESE 18:20:27 10° NNE
Cosmos 1503 Rocket 4.1 18:10:48 10° NNW 18:15:59 77° WSW 18:21:08 10° SSE
Cosmos 1908 3.6 18:15:10 10° SSE 18:18:49 40° E 18:22:30 10° NNE
YAOGAN 6 2.8 18:16:51 10° S 18:20:32 73° W 18:24:11 10° NNW
CZ-4 R/B 1.7 18:17:19 10° S 18:21:26 71° WSW 18:25:38 10° NNW
COSMO-SKYMED 1 3.2 18:17:35 10° N 18:21:52 58° WNW 18:26:07 10° SSW
Cosmos 1328 3.7 18:20:15 10° N 18:24:13 60° E 18:28:06 10° SSE
Cosmos 1934 Rocket 4.0 18:18:14 10° N 18:24:35 79° E 18:30:57 10° S
Cosmos 1535 Rocket 4.4 18:18:29 10° N 18:24:44 80° E 18:30:52 10° S
Cosmos 2084 4.5 18:22:56 10° SW 18:27:20 49° NW 18:31:42 10° NNE
Cosmos 2278 Rocket 2.6 18:22:28 10° S 18:27:40 39° ESE 18:32:53 10° NE
H-2A R/B 3.6 18:28:32 17° ENE 18:28:32 17° ENE 18:31:41 10° NNE
NOSS 3-2 (A) 4.5 18:25:20 10° SSE 18:28:50 20° ESE 18:28:50 20° ESE
Cosmos 839 Rocket 4.2 18:24:14 10° NNW 18:30:22 60° NE 18:36:18 15° SE
Cosmos 1844 4.2 18:25:29 10° SW 18:31:07 62° WNW 18:36:51 10° NNE
USA 116 3.7 18:29:14 10° N 18:32:19 61° WNW 18:35:34 10° SSW
HJ-1C 4.2 18:33:06 32° NE 18:33:06 32° NE 18:35:45 10° N
Lacrosse 5 3.5 18:30:34 10° NNW 18:34:14 20° NNE 18:35:56 17° NE
Cosmos 1953 Rocket 4.4 18:30:46 10° NNW 18:35:02 53° W 18:39:15 10° S
Cosmos 292 Rocket 3.7 18:37:37 10° SSW 18:42:21 90° W 18:47:09 10° NNE
ATLAS 5 CENTAUR R/B 3.7 18:39:07 10° W 18:42:39 23° NW 18:46:30 10° NNE
Unknown 4.3 18:45:36 10° NW 18:47:05 23° N 18:47:05 23° N
CZ-2D R/B 3.7 18:54:08 10° S 18:57:54 61° W 19:01:45 10° NNW
NOAA 11 4.3 18:53:07 10° S 18:58:35 78° WSW 19:04:03 10° NNW
SL-4 R/B 2.5 18:57:35 10° WNW 19:01:10 43° SW 19:01:45 39° SSW
Cosmos 1153 Rocket 4.4 18:55:35 10° N 19:01:42 65° E 19:06:13 19° SSE
Cosmos 1726 4.5 19:11:23 10° SW 19:14:24 24° WNW 19:17:26 10° NNW
ARGOS 4.0 19:15:47 34° NE 19:15:47 34° NE 19:19:25 10° N
Cosmos 1833 Rocket 2.6 19:09:45 10° NNW 19:15:20 60° ENE 19:15:36 59° ENE
ADEOS Rocket 3.4 19:22:21 10° NNE 19:30:03 64° E 19:37:14 10° S
COSMOS 2406 4.1 19:25:52 10° NW 19:31:23 48° WSW 19:34:55 21° S
MOS 1 4.4 19:30:30 34° S 19:33:04 71° WSW 19:38:44 10° NNW
Cosmos 2082 Rocket 2.6 19:27:25 10° NNW 19:32:05 51° NNE 19:32:05 51° NNE
SPOT 3 Rocket 4.2 19:49:52 50° NNW 19:49:52 50° NNW 19:53:41 10° NNW
Lacrosse 5 rocket 3.8 19:46:19 10° W 19:48:43 17° WSW 19:48:43 17° WSW
USA 238 DEB 3.6 19:45:41 10° SW 19:52:22 83° NW 19:53:10 71° NNE
USA 238 3.6 19:45:47 10° SW 19:52:29 83° NW 19:53:11 73° NNE
Cosmos 1459 Rocket 4.0 19:50:16 10° N 19:55:52 73° NNW 19:55:52 73° NNW
USA 234 3.6 20:01:10 53° SSW 20:01:10 53° SSW 20:06:05 10° SW
H-2A R/B 3.3 20:09:09 37° NNW 20:09:09 37° NNW 20:12:25 10° NNW
Cosmos 1802 Rocket 4.4 20:01:42 10° N 20:06:46 57° NNW 20:06:46 57° NNW
Cosmos 2278 Rocket 3.8 20:06:44 10° WSW 20:11:47 32° NW 20:16:51 10° N
Lacrosse 5 3.8 20:13:04 10° NW 20:15:08 24° NNW 20:15:08 24° NNW
